SVA1015 OEMA-OKKK

Flight info

Callsign SVA1015
Flight time N/A
Altitude 35000
Route MIXUG Q46 NADIB H79 GAS B417 HFR A788 KFR
Aircraft B789/H-SDE1E2E3FGHIJ2J3J4J5M1RWXY/LB1D1

Departure

Time 2026-04-16 10:46
Airport Prince Mohammad Bin Abdulaziz Airport (OEMA)

Arrival

Time N/A
Airport Kuwait International Airport (OKKK)
Time Latitude Longitude Altitude Speed Heading
2026-04-16 10:39 24.55386 39.71294 2146 ft 0 kts 78°
2026-04-16 10:39 24.55385 39.71294 2146 ft 1 kts 78°
2026-04-16 10:40 24.55383 39.71277 2146 ft 3 kts 82°
2026-04-16 10:40 24.55381 39.71255 2146 ft 3 kts 90°
2026-04-16 10:40 24.55382 39.71233 2146 ft 3 kts 102°
2026-04-16 10:40 24.55388 39.71213 2146 ft 3 kts 124°
2026-04-16 10:41 24.55399 39.71199 2144 ft 2 kts 162°
2026-04-16 10:41 24.55404 39.71198 2146 ft 7 kts 169°
2026-04-16 10:43 24.56317 39.70395 2143 ft 0 kts 184°
2026-04-16 10:45 24.56261 39.70391 2142 ft 29 kts 184°
2026-04-16 10:46 24.55843 39.70364 2137 ft 91 kts 183°
2026-04-16 10:46 24.55026 39.70295 2128 ft 145 kts 183°
2026-04-16 10:46 24.53861 39.70228 2143 ft 186 kts 181°
2026-04-16 10:46 24.52652 39.70119 3097 ft 163 kts 182°
2026-04-16 10:47 24.51464 39.69980 3536 ft 185 kts 181°
2026-04-16 10:47 24.50099 39.69925 4045 ft 207 kts 179°
2026-04-16 10:47 24.48572 39.69845 4476 ft 233 kts 181°
2026-04-16 10:47 24.46868 39.69717 4874 ft 258 kts 182°
2026-04-16 10:48 24.45023 39.69576 5481 ft 267 kts 183°
2026-04-16 10:48 24.43169 39.69438 6345 ft 269 kts 185°
2026-04-16 10:48 24.41312 39.69304 7396 ft 268 kts 185°
2026-04-16 10:48 24.39460 39.69166 8234 ft 273 kts 185°
2026-04-16 10:49 24.37575 39.69424 9090 ft 279 kts 162°
2026-04-16 10:49 24.35853 39.70493 9821 ft 294 kts 141°
2026-04-16 10:49 24.34555 39.72366 10017 ft 330 kts 116°
2026-04-16 10:49 24.34077 39.74950 10024 ft 363 kts 92°
2026-04-16 10:50 24.34299 39.77739 10011 ft 370 kts 83°
2026-04-16 10:50 24.34764 39.80537 10002 ft 375 kts 81°
2026-04-16 10:50 24.35226 39.83351 10013 ft 374 kts 84°
2026-04-16 10:50 24.35562 39.86182 9994 ft 374 kts 85°
2026-04-16 10:51 24.35875 39.89012 10012 ft 373 kts 85°
2026-04-16 10:51 24.36233 39.91830 9999 ft 374 kts 84°
2026-04-16 10:51 24.36610 39.94660 10000 ft 375 kts 84°
2026-04-16 10:51 24.36970 39.97493 10000 ft 375 kts 84°
2026-04-16 10:52 24.37354 40.00342 10666 ft 376 kts 83°
2026-04-16 10:52 24.37769 40.03173 11484 ft 379 kts 83°
2026-04-16 10:52 24.38178 40.06048 12249 ft 383 kts 83°
2026-04-16 10:52 24.38576 40.08912 12972 ft 387 kts 83°
2026-04-16 10:53 24.38984 40.11858 13659 ft 393 kts 83°
2026-04-16 10:53 24.39405 40.14845 14310 ft 399 kts 82°
2026-04-16 10:53 24.39829 40.17868 14978 ft 404 kts 82°
2026-04-16 10:53 24.40442 40.20895 15536 ft 410 kts 68°
2026-04-16 10:54 24.41845 40.23616 16169 ft 412 kts 49°
2026-04-16 10:54 24.43907 40.25778 16777 ft 411 kts 31°
2026-04-16 10:54 24.46440 40.27187 17392 ft 406 kts 13°
2026-04-16 10:54 24.49197 40.27729 17987 ft 400 kts 356°
2026-04-16 10:55 24.51929 40.27520 18526 ft 399 kts 349°
2026-04-16 10:55 24.54696 40.27196 19102 ft 401 kts 348°
2026-04-16 10:55 24.57482 40.26839 19641 ft 404 kts 348°
2026-04-16 10:55 24.60288 40.26489 20172 ft 407 kts 348°
2026-04-16 10:56 24.63112 40.26152 20692 ft 409 kts 348°
2026-04-16 10:56 24.65951 40.25812 21148 ft 412 kts 348°
2026-04-16 10:56 24.68811 40.25461 21625 ft 415 kts 348°
2026-04-16 10:56 24.71696 40.25106 22066 ft 417 kts 348°
2026-04-16 10:57 24.74592 40.24754 22473 ft 420 kts 348°
2026-04-16 10:57 24.77505 40.24399 22892 ft 422 kts 348°
2026-04-16 10:57 24.80437 40.24043 23299 ft 424 kts 348°
2026-04-16 10:57 24.83374 40.23683 23701 ft 426 kts 348°
2026-04-16 10:58 24.86335 40.23320 24054 ft 429 kts 348°
2026-04-16 10:58 24.89276 40.22961 24395 ft 432 kts 348°
2026-04-16 10:58 24.92267 40.22596 24767 ft 434 kts 348°
2026-04-16 10:58 24.95275 40.22227 25083 ft 436 kts 348°
2026-04-16 10:59 24.98306 40.21857 25400 ft 438 kts 348°
2026-04-16 10:59 25.01347 40.21484 25721 ft 441 kts 348°
2026-04-16 10:59 25.04407 40.21109 26033 ft 443 kts 348°
2026-04-16 10:59 25.07479 40.20732 26381 ft 445 kts 348°
2026-04-16 11:00 25.10567 40.20360 26672 ft 448 kts 350°
2026-04-16 11:00 25.13723 40.20399 26969 ft 458 kts
2026-04-16 11:00 25.16842 40.21066 27289 ft 468 kts 12°
2026-04-16 11:00 25.19892 40.22389 27614 ft 477 kts 23°
2026-04-16 11:01 25.22720 40.24361 27903 ft 487 kts 34°
2026-04-16 11:01 25.25215 40.26953 28204 ft 495 kts 46°
2026-04-16 11:01 25.27227 40.30073 28493 ft 503 kts 58°
2026-04-16 11:01 25.28665 40.33628 28784 ft 509 kts 71°
2026-04-16 11:02 25.29505 40.37430 29038 ft 512 kts 77°
2026-04-16 11:02 25.30235 40.41298 29337 ft 514 kts 77°
2026-04-16 11:02 25.30933 40.45185 29644 ft 516 kts 77°
2026-04-16 11:02 25.31631 40.49082 29937 ft 518 kts 77°
2026-04-16 11:03 25.32349 40.52998 30220 ft 520 kts 77°
2026-04-16 11:03 25.33072 40.56919 30485 ft 523 kts 77°
2026-04-16 11:03 25.34506 40.64852 30978 ft 528 kts 77°
2026-04-16 11:04 25.35228 40.68834 31328 ft 528 kts 77°
2026-04-16 11:04 25.35941 40.72761 31708 ft 528 kts 76°
2026-04-16 11:04 25.36956 40.76640 32048 ft 524 kts 65°
2026-04-16 11:04 25.38325 40.80379 32328 ft 525 kts 65°
2026-04-16 11:05 25.39707 40.84106 32730 ft 524 kts 64°
2026-04-16 11:05 25.41087 40.87837 33092 ft 524 kts 65°
2026-04-16 11:05 25.42454 40.91569 33448 ft 524 kts 64°
2026-04-16 11:05 25.43820 40.95305 33827 ft 523 kts 64°
2026-04-16 11:06 25.45187 40.99029 34196 ft 523 kts 64°
2026-04-16 11:06 25.46559 41.02763 34503 ft 524 kts 64°
2026-04-16 11:06 25.47928 41.06503 34770 ft 525 kts 64°
2026-04-16 11:06 25.49301 41.10263 34955 ft 529 kts 64°
2026-04-16 11:07 25.50684 41.14046 34958 ft 532 kts 64°
2026-04-16 11:07 25.53438 41.21601 34966 ft 525 kts 64°
2026-04-16 11:08 25.56161 41.29068 34965 ft 531 kts 64°
2026-04-16 11:08 25.58954 41.36753 34997 ft 545 kts 64°
2026-04-16 11:09 25.61810 41.44625 34983 ft 556 kts 64°
2026-04-16 11:09 25.64712 41.52643 34993 ft 561 kts 64°
2026-04-16 11:10 25.67609 41.60664 35001 ft 559 kts 64°
2026-04-16 11:10 25.70499 41.68672 35003 ft 559 kts 65°
2026-04-16 11:11 25.73356 41.76615 35011 ft 557 kts 65°
2026-04-16 11:11 25.76228 41.84606 35014 ft 558 kts 65°
2026-04-16 11:12 25.79101 41.92623 35024 ft 557 kts 65°
2026-04-16 11:12 25.81956 42.00599 35015 ft 556 kts 65°
2026-04-16 11:13 25.84806 42.08585 35020 ft 557 kts 65°
2026-04-16 11:13 25.87641 42.16537 35007 ft 557 kts 65°
2026-04-16 11:14 25.90485 42.24535 35002 ft 557 kts 65°
2026-04-16 11:14 25.93322 42.32527 35003 ft 557 kts 65°
2026-04-16 11:15 25.95699 42.39238 35002 ft 557 kts 65°
2026-04-16 11:15 25.98519 42.47212 35003 ft 557 kts 65°
2026-04-16 11:16 26.01346 42.55224 35014 ft 557 kts 65°
2026-04-16 11:16 26.04168 42.63240 35011 ft 555 kts 65°
2026-04-16 11:17 26.06989 42.71262 35007 ft 556 kts 65°
2026-04-16 11:17 26.09777 42.79218 35001 ft 556 kts 65°
2026-04-16 11:18 26.12588 42.87243 35010 ft 556 kts 66°
2026-04-16 11:18 26.15390 42.95267 35000 ft 553 kts 66°
2026-04-16 11:19 26.18164 43.03257 35009 ft 554 kts 69°
2026-04-16 11:19 26.19795 43.11686 35007 ft 559 kts 78°
2026-04-16 11:20 26.21072 43.20177 35016 ft 558 kts 78°
2026-04-16 11:20 26.22389 43.28695 35007 ft 556 kts 78°
2026-04-16 11:21 26.23674 43.37192 35002 ft 555 kts 78°
2026-04-16 11:21 26.24967 43.45689 34999 ft 556 kts 78°
2026-04-16 11:22 26.26236 43.54115 34994 ft 554 kts 78°
2026-04-16 11:22 26.27511 43.62583 34995 ft 553 kts 78°
2026-04-16 11:23 26.28789 43.71048 34996 ft 554 kts 76°
2026-04-16 11:23 26.29863 43.75146 35014 ft 550 kts 64°
2026-04-16 11:23 26.31559 43.78957 35010 ft 546 kts 53°
2026-04-16 11:24 26.36384 43.85353 34993 ft 538 kts 41°
2026-04-16 11:24 26.41636 43.91284 35005 ft 536 kts 40°
2026-04-16 11:25 26.46886 43.97197 34994 ft 536 kts 41°
2026-04-16 11:25 26.52091 44.03090 34998 ft 535 kts 41°
2026-04-16 11:26 26.57343 44.09023 35007 ft 538 kts 41°
2026-04-16 11:26 26.62600 44.14991 35003 ft 538 kts 41°
2026-04-16 11:27 26.67859 44.20953 35003 ft 539 kts 41°
2026-04-16 11:27 26.73136 44.26951 35010 ft 544 kts 42°
2026-04-16 11:28 26.78438 44.32987 35009 ft 546 kts 42°
2026-04-16 11:28 26.83774 44.39067 35014 ft 547 kts 42°
2026-04-16 11:29 26.89108 44.45154 35010 ft 547 kts 42°
2026-04-16 11:29 26.94452 44.51258 35010 ft 547 kts 42°
2026-04-16 11:30 26.99774 44.57352 35011 ft 548 kts 42°
2026-04-16 11:30 27.05083 44.63441 35003 ft 548 kts 42°
2026-04-16 11:31 27.10410 44.69561 35007 ft 548 kts 42°
2026-04-16 11:31 27.15750 44.75702 35002 ft 549 kts 42°
2026-04-16 11:32 27.21083 44.81850 35006 ft 549 kts 42°
2026-04-16 11:32 27.26380 44.87960 35010 ft 549 kts 42°
2026-04-16 11:33 27.31701 44.94109 35006 ft 548 kts 42°
2026-04-16 11:33 27.37018 45.00263 35004 ft 547 kts 42°
2026-04-16 11:34 27.42320 45.06406 35006 ft 547 kts 43°
2026-04-16 11:34 27.47614 45.12552 35002 ft 547 kts 43°
2026-04-16 11:35 27.52911 45.18708 35007 ft 546 kts 43°
2026-04-16 11:35 27.58325 45.24715 35004 ft 545 kts 39°
2026-04-16 11:36 27.63891 45.30485 35004 ft 547 kts 39°
2026-04-16 11:36 27.69526 45.36315 35008 ft 547 kts 39°
2026-04-16 11:37 27.75126 45.42124 35004 ft 547 kts 39°
2026-04-16 11:37 27.80690 45.47904 35010 ft 546 kts 39°
2026-04-16 11:38 27.86283 45.53719 35009 ft 546 kts 39°
2026-04-16 11:38 27.91669 45.59813 35006 ft 548 kts 43°
2026-04-16 11:39 27.96948 45.65975 35013 ft 548 kts 43°
2026-04-16 11:39 28.02225 45.72187 35009 ft 547 kts 43°
2026-04-16 11:40 28.07531 45.78419 35009 ft 548 kts 43°
2026-04-16 11:40 28.12797 45.84626 34985 ft 548 kts 43°
2026-04-16 11:41 28.18062 45.90833 34983 ft 548 kts 43°
2026-04-16 11:41 28.23326 45.97054 34986 ft 548 kts 43°
2026-04-16 11:42 28.28636 46.03335 34986 ft 549 kts 43°
2026-04-16 11:42 28.33602 46.09869 35015 ft 553 kts 56°
2026-04-16 11:42 28.35406 46.13774 35013 ft 557 kts 67°
2026-04-16 11:43 28.36570 46.17928 35015 ft 559 kts 78°
2026-04-16 11:43 28.37890 46.26632 35000 ft 560 kts 81°
2026-04-16 11:44 28.39118 46.35358 34996 ft 558 kts 81°
2026-04-16 11:44 28.39742 46.39672 34980 ft 539 kts 81°
2026-04-16 11:44 28.40343 46.43827 34911 ft 523 kts 81°
2026-04-16 11:44 28.40914 46.47868 34416 ft 518 kts 81°
2026-04-16 11:45 28.41477 46.51877 33714 ft 517 kts 81°
2026-04-16 11:45 28.42056 46.55948 32967 ft 518 kts 81°
2026-04-16 11:45 28.42627 46.59968 32239 ft 518 kts 81°
2026-04-16 11:45 28.43198 46.64028 31505 ft 517 kts 82°
2026-04-16 11:46 28.43759 46.68024 30781 ft 515 kts 81°
2026-04-16 11:46 28.44325 46.72052 30049 ft 514 kts 81°
2026-04-16 11:46 28.44882 46.76021 29338 ft 511 kts 81°
2026-04-16 11:46 28.45439 46.80007 28623 ft 508 kts 81°
2026-04-16 11:47 28.45990 46.83963 27913 ft 504 kts 81°
2026-04-16 11:47 28.46539 46.87907 27211 ft 500 kts 81°
2026-04-16 11:47 28.47077 46.91770 26517 ft 497 kts 81°
2026-04-16 11:47 28.47605 46.95588 25840 ft 492 kts 81°
2026-04-16 11:48 28.48137 46.99451 25159 ft 487 kts 81°
2026-04-16 11:48 28.48656 47.03220 24498 ft 482 kts 81°
2026-04-16 11:48 28.49172 47.06955 23838 ft 477 kts 81°
2026-04-16 11:48 28.49684 47.10681 23180 ft 471 kts 81°
2026-04-16 11:49 28.50186 47.14342 22534 ft 465 kts 81°
2026-04-16 11:49 28.50673 47.17910 21914 ft 459 kts 81°
2026-04-16 11:49 28.51162 47.21491 21290 ft 453 kts 82°
2026-04-16 11:49 28.51639 47.24991 20680 ft 446 kts 82°
2026-04-16 11:50 28.52110 47.28458 20079 ft 440 kts 82°
2026-04-16 11:50 28.52574 47.31881 19484 ft 433 kts 82°
2026-04-16 11:50 28.53026 47.35213 18902 ft 427 kts 82°